Regional Weather Roundup
Issued by NWS

Home | Current Version | Previous Version | Text Only | Print | Product List | Glossary Off
Versions: 1 2 3 4 5 6 7 8 9 10 11 12 13 14 15 16 17 18 19 20 21 22 23 24 25 26 27 28 29 30 31 32 33 34 35 36 37 38 39 40 41 42 43 44 45 46 47 48 49 50

000
ASUS43 KDMX 281508
RWRIA

WEATHER ROUNDUP FOR IOWA
NATIONAL WEATHER SERVICE DES MOINES IA
1000 AM CDT SAT MAY 28 2016

NOTE: "FAIR" INDICATES FEW OR NO CLOUDS BELOW 12,000 FEET WITH NO
SIGNIFICANT WEATHER AND/OR OBSTRUCTIONS TO VISIBILITY.

* - THESE STATIONS ARE NOT NWS STATIONS...THUS NOT UNDER NWS
QUALITY CONTROL.  THEY ALSO DO NOT REPORT WEATHER SUCH
AS PRECIPITATION OR FOG.

IAZ001>003-012>014-020>022-031>034-043>046-281600-
   NORTHWEST IOWA

CITY           SKY/WX    TMP DP  RH WIND       PRES   REMARKS
CARROLL *      PTSUNNY   68  63  83 SW13      29.77S
CHEROKEE *     CLOUDY    64  63  94 SW6       29.77R
DENISON *      MOSUNNY   66  61  82 S12       29.75F
LE MARS *      CLOUDY    64  59  82 SW7G13    29.76S
ORANGE CITY *  PTSUNNY   63  59  88 SW8       29.76S
SHELDON *      CLOUDY    64  61  88 SW12      29.75S
SIOUX CITY     CLOUDY    67  59  75 S9        29.74S
SPENCER        CLOUDY    66  60  81 SW5       29.77S
STORM LAKE *     N/A     64  61  88 S16       29.77S
$$

IAZ055>058-069>071-079>083-090>094-281600-
   SOUTHWEST IOWA

CITY           SKY/WX    TMP DP  RH WIND       PRES   REMARKS
ATLANTIC *     CLOUDY    63  61  94 SW10      29.78F
AUDUBON *      CLOUDY    63  59  88 S8        29.80R
CLARINDA *       N/A     64  61  88 MISG      29.81S
COUNCIL BLFS * MOSUNNY   63  59  88 SW12      29.79S
CRESTON *      CLOUDY    64  61  88 S12       29.81R
HARLAN  *      PTSUNNY   64  61  88 S13       29.81S
LAMONI         CLOUDY    63  60  90 S9        29.79S
RED OAK *      CLOUDY    64  61  88 SW7       29.79S
SHENANDOAH *   CLOUDY    66  63  88 W5        29.80S
$$

IAZ047>049-059>061-072>074-084-281600-
   CENTRAL IOWA

CITY           SKY/WX    TMP DP  RH WIND       PRES   REMARKS
AMES           PTSUNNY   67  63  87 S10       29.78R
ANKENY *       CLOUDY    68  64  88 SW6G14    29.78S
BOONE *        PTSUNNY   68  63  83 S12       29.77S
CHARITON *     MOSUNNY   70  61  73 S15       29.79S
DES MOINES     PTSUNNY   70  63  78 S7        29.77S
GRINNELL*      MOSUNNY   70  63  78 S12       29.80F
KNOXVILLE *    MOSUNNY   70  61  73 SW10      29.78F
MARSHALLTOWN   CLOUDY    67  64  90 S9        29.78S
NEWTON *       PTSUNNY   70  66  88 S10       29.79S
PERRY *        CLOUDY    66  63  88 S10       29.78R
$$

IAZ004>006-015-016-023>025-035-036-281600-
   NORTH CENTRAL IOWA

CITY           SKY/WX    TMP DP  RH WIND       PRES   REMARKS
ALGONA *       CLOUDY    66  63  88 S10       29.77S
CLARION *      CLOUDY    66  64  94 S9        29.78R
ESTHERVILLE    CLOUDY    63  61  93 SW10      29.76R
FORT DODGE *   CLOUDY    66  59  77 S9        29.79R
MASON CITY     CLOUDY    66  64  93 S7        29.79R
FOREST CITY *  CLOUDY    66  61  82 SE7       29.78S
WEBSTER CITY * PTSUNNY   68  63  83 S8        29.76S
IOWA FALLS *   CLOUDY    66  63  88 SE8       29.80S
$$

IAZ007>011-017>019-026>030-037>042-050>054-066-281600-
   NORTHEAST IOWA

CITY           SKY/WX    TMP DP  RH WIND       PRES   REMARKS
CEDAR RAPIDS   PTSUNNY   70  66  87 SW15      29.80S
CHARLES CITY * CLOUDY    66  66 100 SW9       29.80R
CLINTON *      CLOUDY    74  67  78 S18G24    29.85R
DECORAH *      PTSUNNY   66  64  94 SW9G15    29.79R
DUBUQUE        CLOUDY    68  65  90 S15       29.83S
MONTICELLO *   CLOUDY    68  64  88 S14G21    29.82R
OELWEIN *      CLOUDY    68  66  94 S14       29.81S
WATERLOO       CLOUDY    67  62  84 S9        29.79R
$$

IAZ064-065-067-068-078-281600-
   EAST CENTRAL IOWA

CITY           SKY/WX    TMP DP  RH WIND       PRES   REMARKS
DAVENPORT      MOSUNNY   73  65  75 S21G26    29.84S
IOWA CITY      MOSUNNY   72  65  78 S16       29.83S
MT. PLEASANT * MOSUNNY   75  68  78 S17       29.85R
MUSCATINE *    PTSUNNY   75  66  73 S15G22    29.83S
QUAD CITIES    PTSUNNY   76  65  68 S15G26    29.84R
$$

IAZ062-063-075>077-085>089-095>099-281600-
   SOUTHEAST IOWA

CITY           SKY/WX    TMP DP  RH WIND       PRES   REMARKS
BURLINGTON     CLOUDY    72  67  84 SW13      29.86R
FAIRFIELD *      N/A    N/A N/A N/A MISG        N/A
FORT MADISON * CLOUDY    72  66  83 S13       29.87R
KEOKUK *       MOSUNNY   73  66  78 S12       29.85S
OSKALOOSA *      N/A     72  63  73 S12       29.82R
OTTUMWA        SUNNY     73  63  70 S17       29.81R
WASHINGTON *   MOSUNNY   73 -36   1 S15G22    29.83S
$$

ABBREVIATIONS USED IN REMARKS
   TC - TEMPERATURES IN CELSIUS
  WCI - WIND CHILL INDEX
   HX - HEAT INDEX
  VSB - VISIBILITY
$$





USA.gov is the U.S. government's official web portal to all federal, state and local government web resources and services.